Location: Bishop�s Knoyle
(51.0728°N, 2.1714°W)
Time: 12:14:12
(UTC+00:00)

Ariane Rocket - Pass Details

Date: 18 September 2020
Orbit: 761 x 769 km, 98.7° (Epoch: 24 October)

Event Time Altitude Azimuth Distance (km) Brightness Sun altitude
Exits shadow 19:49:59 - 168° (SSE) 2,705 5.5 -15.3°
Reaches altitude 10° 19:51:00 10° 169° (S) 2,294 5.1 -15.5°
Maximum altitude 19:56:03 76° 255° (WSW) 793 3.1 -16.2°
Drops below altitude 10° 20:01:10 10° 342° (NNW) 2,317 6.1 -16.9°
Sets 20:03:30 0° 344° (NNW) 3,249 6.9 -17.3°
